Theta_e
351 342 334 332 333 334 334 336 336 337 337 338 338 337 337 337 336 335 335 328 323 321 313 310 311 311 311 315 318 319 319 323 329 332 332 332 333 334 337 338 339 339 339 338 338 338 339 339 338 338 337 336 335 335 335 335 335 334 333 333 332 332 332 331 331 330 331 333 334 335 336 336 335 336 336 336 336 335 334 332 331 328 328 328 328
351 342 335 333 332 333 334 336 336 337 337 338 338 337 337 337 337 335 335 329 323 319 312 310 311 312 312 314 319 320 321 325 330 331 332 333 335 337 338 339 339 339 338 338 338 338 339 339 338 337 336 335 335 335 335 335 335 334 334 334 333 331 329 327 327 329 331 333 334 334 335 335 335 335 335 335 334 332 330 328 325 320 323 324 324
351 342 336 334 333 334 334 335 336 337 337 337 337 337 337 337 337 335 335 329 322 317 311 310 312 312 312 314 319 321 323 327 330 331 333 335 337 338 339 339 339 339 339 338 338 338 338 338 338 337 336 335 335 335 334 335 335 334 335 333 330 325 322 324 327 329 331 333 334 333 334 334 334 334 334 334 333 332 328 324 322 319 322 323 321
351 344 335 335 334 334 334 335 336 336 336 337 337 337 337 336 337 335 334 330 322 315 310 310 312 312 312 313 318 321 323 326 329 332 336 337 338 339 340 339 339 339 338 338 338 338 338 338 337 337 337 336 335 335 335 335 334 334 334 332 328 320 320 326 329 331 331 332 333 332 331 331 331 330 329 327 326 328 325 323 324 324 325 325 324
350 343 335 335 334 335 335 335 335 336 336 337 337 337 336 336 336 335 334 330 322 314 310 310 312 313 313 313 317 320 322 325 329 334 337 338 339 339 340 340 340 339 339 338 337 337 337 337 337 336 335 334 333 331 329 326 325 326 326 328 326 319 323 329 330 331 332 332 333 334 330 327 327 324 322 319 316 317 319 322 324 323 324 325 323
347 342 336 335 335 335 335 335 335 335 336 336 337 336 336 336 336 335 333 330 321 312 309 310 312 313 313 312 314 317 320 323 330 336 338 338 339 339 339 339 339 339 339 338 336 336 335 334 333 332 330 327 323 318 315 313 312 313 314 319 319 321 329 331 331 332 333 332 333 334 330 327 324 321 319 316 314 314 314 320 322 319 321 323 320
346 342 339 337 335 335 335 335 335 334 335 335 336 336 336 335 335 334 333 330 319 311 309 311 313 313 313 313 312 315 318 323 330 335 337 338 339 339 339 338 339 338 338 337 335 333 332 330 329 328 324 318 313 310 309 309 308 309 309 311 314 323 330 329 330 332 333 332 332 333 330 328 323 322 323 319 320 319 314 315 318 315 316 317 315
345 343 343 339 335 336 335 335 334 333 333 335 335 334 335 334 334 333 333 328 317 310 310 311 313 313 313 313 312 313 317 321 328 334 336 337 338 339 338 338 338 337 337 335 333 330 329 328 325 322 317 312 309 308 309 308 308 308 309 314 320 327 330 329 330 332 333 331 331 331 330 327 321 325 329 325 324 322 314 310 312 311 311 311 311
346 344 343 340 335 336 335 335 334 332 332 332 332 332 332 332 332 332 332 326 314 309 310 311 313 314 313 313 313 313 315 318 324 332 335 336 337 338 338 338 337 336 334 330 328 326 325 323 318 315 311 309 309 308 308 308 308 308 313 322 327 329 329 330 331 332 333 331 330 330 328 322 318 324 327 324 319 317 312 308 310 309 310 308 308
346 344 344 341 336 335 335 334 333 331 330 329 328 328 328 329 329 330 331 322 311 310 310 311 313 314 313 314 314 313 314 316 320 328 333 334 334 335 336 335 334 333 329 325 322 320 318 315 312 310 309 309 309 308 309 308 308 313 321 327 328 328 328 329 329 330 330 329 329 326 322 316 314 319 319 317 314 312 310 308 308 307 308 307 309
345 344 345 342 336 335 335 334 333 330 327 325 324 323 324 325 327 329 328 318 310 310 310 311 313 314 314 313 314 313 313 314 317 323 328 331 332 333 333 333 334 330 324 320 317 314 312 310 309 309 309 309 309 309 309 308 311 322 329 330 329 330 331 330 331 331 329 327 325 322 317 312 309 311 312 311 310 310 308 308 308 307 307 307 316
346 345 346 343 336 335 335 334 332 329 325 322 321 321 322 323 325 326 323 315 309 310 310 310 312 313 313 313 314 313 313 313 316 319 323 326 329 330 331 333 331 324 319 316 313 311 310 309 309 309 309 310 310 309 310 311 316 325 330 330 330 331 331 331 331 331 330 326 322 318 313 310 309 308 309 308 308 308 308 308 308 308 309 308 314
346 345 346 343 336 335 335 333 331 326 323 320 320 321 321 322 323 323 319 312 310 310 310 310 311 313 313 314 314 314 313 313 314 317 319 321 323 326 328 329 324 319 315 313 312 311 310 309 309 309 310 310 310 310 311 314 318 325 330 331 332 332 331 332 332 331 331 327 320 316 310 309 309 308 309 309 309 308 308 309 309 309 310 309 310
346 346 346 342 336 335 334 332 327 323 320 319 320 320 320 320 320 320 316 312 310 310 310 310 311 312 313 314 314 314 313 313 313 315 317 319 321 323 324 323 320 316 313 313 313 311 309 309 310 310 310 310 311 311 312 315 318 324 329 331 331 332 333 333 333 332 329 324 316 313 310 310 309 309 309 310 309 309 310 310 310 311 310 310 311
345 345 345 340 336 335 333 331 326 322 319 318 318 318 318 318 318 318 315 313 311 310 310 310 311 311 312 313 314 314 314 313 313 313 316 319 320 321 321 321 318 315 314 315 313 311 310 309 309 310 310 310 311 311 312 314 317 322 327 330 331 331 331 332 333 332 326 319 314 312 310 311 310 310 311 311 310 310 311 311 311 311 311 311 311
346 347 345 339 336 335 332 330 325 321 318 317 317 317 317 317 317 316 314 313 311 310 310 310 310 311 312 313 313 314 314 314 313 312 314 318 320 321 321 321 318 316 316 316 315 313 311 309 309 310 310 310 311 311 312 314 315 319 325 329 331 331 331 331 332 332 327 317 313 312 311 311 311 312 312 312 311 311 312 312 312 311 311 312 312
347 347 345 338 336 335 332 327 322 321 319 319 318 318 318 317 316 315 314 313 312 311 311 311 311 311 312 313 313 314 314 313 314 313 313 316 319 321 321 321 319 318 318 318 316 314 312 310 309 309 310 310 310 310 311 312 314 316 323 329 333 333 333 333 333 334 329 318 312 312 312 312 313 313 312 312 312 312 312 312 312 312 312 312 312
346 345 343 338 337 334 329 324 320 321 321 320 320 319 319 317 315 314 314 313 312 312 311 311 311 311 311 312 313 313 313 313 313 313 313 315 319 321 321 322 320 319 319 319 317 316 315 312 310 310 310 310 310 311 312 312 314 317 321 327 331 332 331 332 333 331 325 316 312 312 312 312 313 313 312 312 312 312 312 312 313 312 312 312 312
345 344 342 339 338 334 329 323 320 321 320 319 319 318 317 315 314 314 314 313 313 313 312 312 311 311 311 311 312 312 312 312 313 313 313 314 318 321 321 322 321 320 320 320 318 318 317 315 312 311 312 312 313 313 314 314 315 318 321 326 331 333 333 334 333 328 321 315 312 312 312 312 312 312 312 312 312 312 312 312 312 312 313 312 312
344 343 342 341 340 336 329 321 320 321 319 318 317 317 316 315 315 314 314 314 315 314 313 313 312 312 312 312 311 312 312 312 312 312 313 314 316 319 321 322 321 321 321 320 319 319 319 318 317 316 315 315 316 316 315 315 316 318 321 326 330 332 333 333 333 328 321 315 313 313 312 312 312 312 312 312 312 311 311 312 312 312 312 312 312
344 342 343 343 342 338 327 320 323 323 323 323 322 322 321 321 320 319 319 319 319 318 317 316 314 313 313 313 312 314 314 313 313 312 313 314 315 317 320 321 321 322 322 321 321 320 319 319 319 319 319 318 318 318 318 317 318 320 322 324 327 330 333 334 333 329 322 316 314 314 313 312 312 311 311 311 311 311 311 311 312 312 312 311 311
343 342 343 342 342 339 326 322 326 326 327 329 330 330 327 327 326 325 324 324 324 323 322 319 318 316 315 315 315 317 316 313 312 312 313 313 315 316 317 320 321 322 323 323 322 322 321 319 319 319 318 318 318 318 319 319 320 321 322 324 326 329 333 334 333 331 327 321 317 316 314 313 313 311 311 310 310 310 310 310 310 311 311 310 310
343 343 344 342 342 340 331 329 330 330 332 332 333 333 331 331 329 330 328 327 328 327 326 323 322 320 320 323 324 326 326 322 316 312 312 312 313 315 316 317 320 322 323 324 324 324 324 322 321 320 318 317 318 318 319 319 321 323 324 325 325 329 333 334 334 331 328 324 319 318 316 315 314 313 312 311 310 310 310 310 310 309 309 309 310
344 344 344 343 342 340 337 336 335 333 335 334 335 335 333 332 330 331 330 330 331 330 330 326 325 326 328 332 334 335 335 334 328 319 314 312 312 314 316 317 318 321 322 323 325 326 326 325 324 322 320 319 321 325 326 322 320 327 331 327 328 333 334 333 333 329 326 326 321 319 318 317 317 315 314 313 311 311 311 310 310 309 309 309 309
346 345 344 343 343 341 338 338 337 335 336 336 337 336 336 336 334 333 333 333 334 334 332 328 329 332 334 337 338 338 338 339 337 331 323 316 313 313 314 317 318 319 321 322 323 326 326 325 324 322 322 326 329 333 334 329 325 332 334 329 330 334 332 332 333 330 328 327 323 320 320 319 319 318 317 316 313 313 312 311 309 309 308 309 309
346 345 344 343 342 341 339 338 337 336 338 338 338 337 337 338 338 337 336 336 337 337 335 333 333 334 336 337 339 339 339 339 338 336 333 324 316 313 313 314 317 319 319 320 322 324 325 324 324 321 325 332 335 335 336 333 331 334 332 328 331 333 332 333 332 331 330 327 323 321 321 320 320 320 319 318 317 316 315 313 311 309 309 309 310
346 345 344 343 342 340 339 339 338 337 338 338 338 338 338 338 339 338 337 337 338 338 338 337 337 336 337 338 339 338 338 339 338 337 337 332 320 314 314 312 314 317 318 319 321 323 324 324 322 322 327 333 335 336 335 333 332 334 332 328 332 333 332 332 332 331 329 326 323 322 322 322 322 322 321 319 319 318 318 316 314 313 313 312 312
345 344 344 344 342 340 339 339 338 337 338 338 338 338 338 338 339 338 337 337 338 338 338 337 337 338 338 338 339 337 337 338 337 337 338 337 328 318 316 313 312 314 317 318 320 323 325 327 325 323 328 334 335 335 333 332 331 334 332 328 330 332 332 332 332 331 328 327 326 323 322 323 322 323 322 321 321 321 320 318 316 315 316 314 313
344 344 344 344 342 340 339 339 339 338 338 338 338 338 337 337 339 337 336 336 337 338 338 337 337 338 337 337 337 336 337 337 336 337 337 338 335 328 323 320 316 313 315 316 317 322 325 330 331 329 332 335 335 334 333 332 330 332 332 329 331 332 332 332 332 332 328 327 327 324 323 323 323 323 322 323 323 324 323 320 317 316 316 315 313
343 344 344 343 342 341 340 339 339 339 339 338 338 338 337 338 338 337 337 337 337 337 337 337 338 337 337 336 335 334 335 335 336 337 337 337 337 334 331 330 326 317 314 314 317 321 324 330 334 334 335 335 334 333 332 332 331 332 331 331 333 331 331 332 332 333 330 328 328 324 323 324 323 322 322 323 323 323 323 321 319 318 316 315 314
342 343 343 343 342 341 340 339 339 339 338 338 338 338 337 338 338 337 338 338 338 337 337 338 337 336 336 335 332 334 334 333 336 336 336 336 335 335 335 334 332 325 318 316 318 324 327 330 333 334 335 334 334 333 332 332 330 331 331 332 333 332 332 332 332 333 332 330 329 325 323 323 322 321 321 321 321 321 321 321 321 320 317 315 314
341 341 342 342 342 341 340 340 339 339 338 338 337 337 338 338 338 338 337 337 336 337 338 337 335 333 333 332 330 333 334 334 336 335 335 336 335 334 335 335 334 331 328 325 325 329 331 332 333 334 334 333 334 334 332 331 330 331 332 331 332 332 332 332 332 333 332 331 330 328 326 325 322 321 321 321 322 321 320 322 322 320 318 316 313
342 341 341 341 341 340 340 340 339 338 338 338 337 337 338 336 335 335 335 335 334 335 335 333 332 332 330 330 331 332 333 335 336 335 335 336 335 335 335 335 335 334 333 332 331 333 333 333 334 334 335 334 334 334 332 332 331 331 332 332 333 332 331 332 332 332 333 332 331 330 329 329 325 322 323 323 323 321 320 321 320 317 315 314 310
342 341 340 340 339 339 339 339 339 339 338 337 337 337 335 334 334 335 335 335 334 333 333 332 332 333 331 332 334 333 333 334 335 335 335 335 335 335 334 334 335 334 334 334 332 333 333 333 335 335 335 335 335 334 333 333 333 332 332 333 334 333 332 333 333 332 333 332 332 331 330 331 329 326 327 326 324 322 319 318 317 314 311 310 307
341 340 340 340 339 338 338 339 339 338 337 336 336 335 334 334 335 335 335 334 335 335 334 332 331 332 333 334 333 332 333 333 333 334 334 334 334 334 334 334 334 334 334 334 333 332 333 333 333 334 335 336 335 334 334 333 333 333 333 333 333 333 332 333 333 331 332 332 332 332 331 332 331 329 329 328 326 323 318 315 313 310 308 307 306
341 340 341 340 339 338 338 338 338 337 337 337 336 335 334 334 333 334 334 334 334 335 334 333 331 332 332 332 331 331 332 332 332 333 333 333 333 332 332 332 333 334 335 334 333 332 332 333 333 333 334 335 334 333 334 334 333 333 333 333 332 332 332 333 333 331 331 332 332 332 332 331 331 330 329 329 328 324 317 312 309 308 307 307 308
340 340 340 340 339 338 337 337 336 336 336 336 336 335 334 334 333 334 334 334 334 334 334 333 332 332 331 331 331 330 331 331 332 331 332 333 332 331 332 332 332 333 335 334 334 333 332 332 333 333 333 333 331 333 335 334 333 332 332 333 332 333 332 332 333 330 331 332 331 332 331 331 331 330 329 328 328 325 317 311 310 310 310 312 314
340 340 340 339 339 338 337 337 337 336 336 335 335 334 334 334 334 334 334 334 334 334 334 333 332 332 331 331 331 330 330 331 331 331 331 331 331 330 331 332 331 333 334 333 333 334 332 332 333 333 332 331 330 332 334 332 332 332 332 333 333 332 331 331 332 331 331 331 331 332 331 331 331 330 329 329 329 325 317 314 314 315 317 318 319
341 341 340 339 339 338 338 338 337 336 336 335 334 335 335 335 335 334 334 335 335 335 335 334 334 333 332 332 331 330 330 331 331 331 330 330 329 329 330 329 329 332 333 332 332 332 333 333 333 332 332 331 331 331 332 332 333 333 333 333 332 331 330 330 331 331 331 331 331 332 331 331 331 330 329 329 328 325 319 316 318 319 321 322 322
342 341 340 340 339 339 339 338 337 336 336 336 336 336 335 336 337 336 336 336 336 336 337 336 335 335 334 333 332 331 330 330 331 330 328 328 328 328 329 328 327 330 332 332 332 331 331 333 333 332 331 331 331 331 332 332 333 333 333 333 331 331 332 331 331 331 331 331 331 331 331 331 330 329 329 329 328 327 322 318 320 320 321 323 324
342 342 341 340 340 338 338 338 337 337 336 336 336 335 335 336 337 337 337 337 337 338 337 336 336 336 336 335 333 333 331 330 330 330 328 327 328 328 329 328 328 330 332 332 331 331 331 331 332 333 333 332 331 332 333 333 333 333 333 333 331 331 332 331 330 331 331 331 331 331 331 331 331 329 329 329 328 328 325 322 322 323 323 324 325
340 340 340 341 341 340 339 338 338 337 336 337 337 337 337 338 338 338 337 337 338 337 336 337 337 336 335 334 333 332 332 330 330 330 330 330 330 330 330 329 329 330 331 331 331 331 332 331 330 331 333 333 332 331 333 333 333 333 332 332 331 331 331 330 330 330 330 330 331 331 331 331 331 330 330 329 328 328 327 325 326 327 326 326 326
338 338 339 339 340 340 340 340 339 339 338 338 338 339 339 338 338 337 337 336 336 336 336 336 335 334 333 333 332 331 331 331 330 331 331 331 330 330 329 329 329 329 329 330 330 331 331 332 331 329 331 334 333 332 333 333 333 333 332 331 331 330 330 330 330 330 331 330 330 331 331 331 331 330 330 329 328 328 328 327 327 327 327 327 326
338 337 337 338 338 338 338 338 339 338 338 337 337 337 337 337 336 336 335 335 334 335 335 335 334 334 333 333 333 332 332 332 331 331 331 332 330 329 329 329 330 329 329 329 330 331 331 331 332 330 330 333 333 332 332 333 333 333 332 331 330 330 331 331 329 329 330 331 331 331 331 331 330 329 330 330 329 329 328 327 327 327 327 327 327
336 336 336 336 336 336 335 336 336 335 335 335 336 336 335 335 336 336 336 335 335 335 336 336 336 335 334 333 333 333 333 333 332 332 332 333 331 330 330 330 330 329 329 328 328 330 330 330 331 331 330 332 333 332 331 332 332 333 331 331 331 331 331 331 330 330 330 331 331 331 331 331 330 329 330 330 329 329 329 328 327 327 326 326 327
335 334 334 335 335 335 335 335 335 335 333 333 334 335 335 335 336 336 336 336 336 336 336 337 337 336 334 333 333 333 333 333 333 333 333 333 331 330 330 330 330 330 329 328 328 329 330 329 329 329 329 331 333 332 331 331 331 331 330 330 330 330 331 331 331 331 330 331 331 331 331 330 329 328 329 329 329 329 329 328 328 327 326 326 326
334 334 335 335 335 335 335 335 335 335 334 333 334 335 336 336 335 336 337 336 337 336 336 336 336 335 334 333 332 332 332 332 333 333 333 332 331 330 330 330 330 330 329 328 329 329 330 329 328 329 329 330 332 332 332 332 330 329 329 329 329 329 330 330 331 332 331 331 331 331 331 330 330 329 329 328 329 329 329 329 329 327 327 327 327
335 335 335 335 334 335 335 335 335 335 335 334 334 336 336 335 335 336 336 336 336 337 337 336 335 334 333 332 331 330 331 332 332 333 333 333 332 330 331 330 330 330 329 329 329 329 330 330 329 329 329 329 330 331 332 332 330 329 329 328 328 330 330 330 331 332 332 332 331 331 331 331 330 329 328 328 328 329 329 328 329 328 327 327 328
334 334 334 334 334 334 334 334 334 334 335 335 335 336 336 336 336 336 336 336 337 337 337 336 335 334 334 332 330 329 329 331 333 333 332 333 332 331 331 331 331 330 330 329 329 329 329 330 330 330 330 330 329 330 332 332 330 329 329 328 328 329 330 331 332 332 331 332 332 331 331 331 330 329 329 328 328 329 328 328 329 328 327 327 328
333 333 332 332 332 333 333 333 334 334 335 335 335 335 336 336 337 336 335 336 336 336 336 335 335 335 334 332 330 329 329 330 332 333 332 332 332 331 331 332 332 331 330 329 329 328 329 330 330 330 330 330 330 330 331 330 330 330 329 328 328 328 329 330 331 331 331 331 332 331 330 331 330 329 329 329 328 328 328 327 328 328 327 328 327
330 330 329 329 330 330 330 331 331 332 333 334 334 334 335 335 336 335 335 336 336 335 335 335 334 334 334 333 331 330 330 329 329 330 331 332 332 331 331 329 328 329 329 328 327 327 328 330 331 330 329 328 329 330 330 329 329 330 330 329 329 328 328 329 331 331 330 330 331 331 331 331 330 329 330 328 329 329 328 327 328 328 328 328 327
Wind_Speed
9 14 16 14 16 15 16 16 15 14 14 14 12 11 10 9 7 7 7 9 9 9 10 11 12 13 14 15 17 17 17 18 18 18 17 17 16 16 15 15 16 16 15 15 15 15 15 15 14 13 13 12 12 13 13 12 13 13 14 15 15 16 16 15 15 15 14 13 14 14 14 13 13 13 13 13 13 12 11 9 9 9 10 11 11
11 14 18 15 15 15 15 15 15 14 14 13 12 11 10 9 7 6 7 8 9 9 9 11 12 13 13 15 17 17 17 18 18 18 17 17 16 16 16 17 17 17 17 16 16 16 15 15 14 13 13 12 12 12 12 12 12 12 13 14 15 15 14 15 16 16 15 13 13 13 13 13 13 12 12 12 11 11 9 8 8 8 9 8 7
11 14 19 16 15 14 14 14 15 14 13 13 12 11 10 9 7 6 7 8 9 9 9 10 11 13 13 15 16 16 17 17 18 17 17 16 16 16 17 17 17 17 17 16 16 16 15 14 14 13 13 12 12 11 11 11 11 11 12 12 13 13 13 16 18 19 17 15 13 12 11 12 12 11 10 11 11 11 11 11 10 11 11 9 8
9 14 20 17 15 14 13 13 13 13 13 12 12 11 10 9 7 7 7 7 8 9 9 10 11 12 13 15 16 15 16 16 18 18 17 17 16 16 17 17 17 17 16 16 16 15 15 14 13 13 13 12 11 10 10 10 9 9 9 9 11 12 15 18 20 19 17 18 17 14 11 10 11 10 9 9 10 11 12 13 12 11 12 12 11
8 15 20 18 16 14 13 12 13 13 13 12 12 11 10 9 8 7 6 7 8 9 10 10 11 12 13 14 15 15 15 16 18 18 17 17 17 16 16 16 16 16 16 16 15 14 14 13 12 12 12 11 10 9 8 8 7 7 7 8 11 14 19 21 21 18 16 18 18 17 14 8 9 10 9 9 9 10 11 13 11 11 12 12 12
8 16 20 18 17 15 13 12 12 12 12 13 12 11 10 9 8 7 6 6 7 9 10 11 12 12 12 13 14 14 15 17 19 18 17 16 16 16 15 15 16 16 15 14 13 13 12 12 11 11 10 9 8 8 8 8 8 8 8 10 13 18 20 20 19 16 15 15 15 14 13 9 9 10 9 9 10 10 11 12 11 12 13 12 12
7 14 16 16 19 16 14 12 12 12 12 12 11 11 10 9 8 6 6 5 7 9 11 12 12 12 12 12 13 14 15 18 20 18 16 16 16 16 15 15 15 14 13 12 11 11 11 11 10 10 9 9 9 9 9 10 11 11 12 15 18 21 21 21 19 17 15 13 13 10 4 8 8 11 11 10 11 11 10 10 11 13 13 12 12
9 13 13 14 19 16 14 13 12 12 11 12 11 11 10 9 8 6 6 5 7 11 12 12 12 12 11 11 12 13 14 16 19 18 17 16 16 15 14 14 14 13 11 10 10 10 10 10 10 10 10 10 10 11 11 13 15 15 18 21 22 21 20 20 18 17 15 12 12 5 5 6 5 12 13 11 12 12 11 9 10 12 13 12 11
13 16 13 12 17 16 14 13 12 11 11 11 11 10 9 9 8 7 6 6 8 12 13 13 13 12 11 11 11 11 12 14 17 18 17 16 15 15 14 13 12 12 10 9 9 9 10 11 11 11 11 11 11 12 13 14 17 19 23 25 24 21 20 19 17 17 12 9 11 6 2 4 9 13 12 11 12 11 11 10 10 12 12 11 11
17 18 13 10 16 17 14 13 11 11 11 11 10 10 9 9 8 7 6 7 10 12 13 13 13 12 11 11 11 10 11 13 16 19 18 16 15 15 14 13 12 11 10 9 10 11 11 12 12 12 12 12 12 13 14 15 18 23 26 25 23 22 21 19 19 17 10 7 9 4 3 6 12 13 11 11 11 11 11 11 12 12 11 12 13
19 17 9 8 16 16 14 13 11 11 11 10 10 10 10 10 9 8 7 8 10 12 13 13 13 13 12 11 11 10 10 12 14 17 18 16 15 15 14 13 12 10 10 11 12 12 13 13 13 13 13 13 14 15 15 16 20 25 26 24 22 20 19 19 20 16 10 8 6 3 1 7 15 14 13 13 12 12 12 13 13 12 12 13 14
19 15 6 7 16 16 14 13 11 11 10 10 11 11 10 10 9 8 8 9 11 12 13 13 13 13 12 12 11 10 10 12 13 15 15 15 14 14 14 13 11 10 11 12 13 14 14 14 14 15 15 15 16 16 17 18 22 26 26 24 23 21 20 19 19 13 7 6 4 5 8 13 16 15 15 14 14 14 13 14 13 13 13 13 13
16 13 7 10 17 16 15 13 12 11 11 11 11 11 10 9 8 8 9 9 10 11 12 12 13 14 13 12 11 10 9 11 13 14 14 14 14 14 14 13 12 11 13 14 14 15 14 14 14 15 16 17 17 17 18 21 24 26 26 24 23 22 20 19 16 11 7 5 5 8 12 15 15 15 15 14 14 14 13 13 13 13 13 12 12
12 11 9 15 20 17 15 14 12 11 11 11 11 10 9 8 8 9 9 9 9 10 11 11 12 13 13 12 11 11 9 10 12 13 14 14 14 14 14 13 12 12 13 14 14 15 14 14 14 15 16 17 17 17 19 21 23 25 25 24 24 22 21 19 13 9 7 5 7 9 12 14 14 14 14 14 14 13 12 13 12 12 12 12 13
11 12 11 18 22 18 16 14 12 12 11 11 10 10 9 9 9 9 9 9 9 10 10 10 11 12 13 12 11 11 10 9 11 12 13 14 15 15 15 14 13 13 13 14 14 15 14 14 14 14 15 16 17 17 18 19 22 24 24 23 22 21 19 18 11 7 6 5 8 9 11 12 12 13 13 13 13 12 11 11 12 12 12 13 13
11 10 11 18 19 16 16 14 13 12 11 11 10 10 10 10 11 11 10 10 10 10 10 10 10 11 11 12 12 11 10 9 10 12 13 14 15 14 15 14 13 13 13 13 14 15 14 14 14 14 15 15 16 16 16 17 18 21 23 23 21 19 17 16 11 7 5 5 7 8 10 11 11 11 12 12 12 12 11 11 12 12 12 12 13
11 9 11 18 17 14 14 13 12 10 9 9 8 8 8 9 10 10 10 10 10 10 11 10 10 10 10 12 12 11 11 10 10 11 12 14 16 15 15 15 14 13 13 13 14 14 14 14 14 14 14 15 15 16 16 16 17 19 21 21 19 17 17 15 10 7 4 4 7 8 9 10 10 10 11 11 10 10 11 10 11 11 11 11 12
13 10 12 18 15 13 13 12 12 10 8 7 6 6 6 8 8 9 9 9 11 11 11 10 10 10 10 11 12 11 12 11 10 11 12 14 16 16 16 15 15 14 13 13 14 14 14 14 14 14 15 15 15 16 17 18 18 19 20 21 20 17 15 14 7 4 3 3 5 6 7 9 8 9 10 9 9 9 9 9 9 9 9 9 10
12 11 13 15 13 12 13 13 13 11 9 8 7 7 7 8 8 9 9 10 11 10 11 10 10 10 10 11 12 12 12 12 11 11 12 14 16 17 17 16 16 15 14 14 14 15 14 14 14 14 14 15 15 16 16 18 19 20 20 20 20 17 15 14 5 2 1 2 4 4 5 7 7 7 8 8 8 8 8 7 7 7 7 7 7
11 12 15 12 11 11 12 13 13 12 10 10 9 9 10 10 10 11 11 11 10 10 10 10 9 9 9 10 11 11 12 13 13 12 12 13 16 17 17 16 16 16 15 15 15 15 15 14 14 14 14 14 14 14 14 15 17 17 17 17 18 18 16 10 3 4 2 1 3 3 3 4 5 5 5 6 7 7 6 6 6 6 6 6 5
12 14 17 15 12 11 11 12 13 12 12 12 11 12 13 12 12 12 12 11 10 10 10 9 9 9 9 10 10 10 11 12 14 14 13 13 15 17 18 17 17 16 15 15 16 16 15 15 14 14 13 13 13 12 13 13 14 14 14 15 15 17 16 7 2 6 3 2 2 1 1 2 4 4 4 4 4 5 5 4 5 5 5 5 4
14 15 15 15 15 12 12 12 12 12 12 12 12 14 14 13 13 12 12 11 11 10 10 10 10 9 9 8 8 8 9 10 12 14 14 13 14 17 18 18 17 17 16 16 16 16 15 14 14 13 12 12 12 11 11 11 11 10 10 10 12 15 15 6 3 6 6 1 1 0 0 2 2 3 3 3 3 3 3 3 4 4 4 4 3
16 15 12 14 15 13 12 11 10 11 12 12 12 14 14 14 13 12 12 11 11 10 10 11 11 10 9 8 7 6 7 8 10 13 13 14 13 15 17 19 18 17 17 16 16 16 15 14 13 12 12 12 11 11 10 9 8 7 7 8 12 14 12 5 4 9 10 6 2 1 1 3 3 3 3 2 2 2 3 3 3 3 2 2 2
14 13 12 13 14 14 12 10 11 13 13 13 13 14 14 13 13 12 11 11 10 10 10 11 11 10 9 8 7 7 8 7 8 11 12 13 14 14 16 18 19 18 17 17 16 15 14 14 13 12 12 10 9 8 5 4 5 6 6 8 12 11 8 3 3 9 8 6 3 2 2 3 3 3 3 2 3 2 2 2 1 2 2 1 1
13 13 14 13 14 14 12 12 14 15 14 14 14 14 13 12 12 11 10 10 9 9 9 10 10 9 9 9 10 12 12 10 9 9 10 12 14 14 16 17 18 18 17 17 16 16 15 14 13 12 10 8 7 6 1 2 2 4 2 6 10 9 6 4 5 9 8 7 5 4 2 3 3 3 2 2 2 2 2 0 0 1 1 1 1
13 14 15 15 16 13 12 14 15 15 15 15 14 14 13 12 11 10 9 9 9 10 10 9 8 8 10 12 13 13 13 13 10 8 8 11 14 15 15 16 16 18 18 17 17 16 15 14 12 11 10 9 9 8 6 4 1 2 3 6 10 7 6 4 6 10 9 9 6 4 3 3 3 3 2 2 2 2 2 0 0 0 1 1 2
13 12 14 16 16 13 13 15 14 14 15 15 15 13 13 11 11 10 9 9 10 10 10 9 10 11 13 14 12 11 12 12 11 9 9 9 11 13 14 16 16 17 18 18 17 16 15 14 12 12 11 9 8 9 10 6 4 4 5 6 8 5 5 5 6 10 9 6 4 4 3 3 3 3 2 2 2 2 2 2 0 1 1 1 2
11 10 12 15 15 12 14 15 13 13 15 15 14 13 12 11 11 10 8 9 9 10 10 9 13 14 14 13 11 10 10 11 12 11 11 10 9 11 14 15 16 17 17 16 16 16 16 15 13 12 10 7 7 10 9 8 8 7 7 4 8 7 7 6 7 9 9 5 3 3 2 2 3 3 3 2 2 2 2 2 1 1 2 1 2
10 10 13 14 12 11 13 14 14 15 15 15 13 12 11 11 11 10 9 9 9 10 10 10 12 13 11 11 11 10 10 13 14 13 13 11 9 10 12 14 15 16 15 15 14 14 15 14 13 11 9 8 11 11 9 9 9 9 8 4 7 9 8 8 7 8 10 7 3 2 1 2 2 2 3 3 1 2 2 1 0 1 1 1 1
7 8 11 11 9 9 11 13 14 15 15 14 13 11 11 11 11 10 10 9 9 11 11 11 10 9 10 11 11 11 11 13 14 14 14 13 11 12 14 14 14 14 15 15 14 14 15 15 14 13 11 12 13 13 11 10 9 9 7 6 7 9 9 8 7 7 9 8 4 0 0 1 2 2 2 2 2 1 2 2 2 1 1 1 1
6 5 6 7 7 8 10 12 13 14 14 14 12 10 10 10 10 10 9 9 10 11 10 10 8 5 7 10 11 13 14 14 15 15 15 15 14 14 16 16 14 13 14 16 15 14 15 16 15 15 15 15 14 13 13 11 10 9 7 7 9 9 8 8 8 7 6 7 5 0 0 1 1 2 3 2 3 3 3 4 2 1 1 1 1
6 4 5 7 8 9 10 12 13 13 13 13 10 9 9 8 8 8 8 8 8 9 6 5 5 2 4 9 12 15 16 16 16 16 17 17 16 15 16 17 16 15 14 15 16 14 14 15 15 15 16 16 13 13 15 12 10 10 8 9 12 9 7 8 7 7 6 6 6 2 1 1 1 1 2 2 3 3 3 3 3 2 1 1 2
6 5 5 6 7 9 11 11 11 10 9 9 6 6 7 6 6 5 6 6 7 6 4 4 4 4 5 9 12 15 16 17 16 16 17 16 16 17 17 18 18 17 18 17 16 16 16 17 16 16 17 15 14 15 16 13 11 11 9 11 13 10 8 7 6 6 6 5 7 5 2 1 1 1 1 1 2 2 2 2 3 2 1 1 2
6 6 5 5 5 8 9 8 8 8 7 6 5 5 5 3 3 3 4 5 5 5 5 5 5 7 8 9 12 14 16 17 17 17 17 16 16 16 16 18 18 19 20 18 16 17 17 18 18 18 18 17 16 17 16 14 13 12 12 12 11 10 8 6 6 6 6 5 6 8 6 4 3 0 0 0 1 1 1 2 3 1 2 2 4
6 7 6 6 6 6 6 5 6 7 6 6 6 5 5 4 3 3 4 5 5 7 9 8 8 10 11 12 13 15 16 17 18 18 18 17 17 16 16 16 17 18 19 17 18 19 18 17 18 19 19 19 19 18 16 15 14 12 13 12 10 11 10 8 8 7 6 7 8 8 8 7 4 2 1 1 0 0 1 2 2 1 3 5 7
6 7 7 7 8 7 6 6 6 6 7 6 5 5 5 5 3 4 6 6 6 8 9 9 9 11 13 14 14 15 16 16 19 20 18 18 17 16 16 15 15 17 16 16 18 20 19 17 17 19 19 20 20 17 16 16 15 13 13 13 12 12 10 11 10 7 7 9 9 8 8 8 6 4 3 2 2 1 0 1 2 4 6 8 10
6 6 7 8 9 9 7 7 6 6 7 6 6 5 5 4 4 5 6 6 5 6 8 9 10 12 14 14 15 15 15 16 18 20 20 18 17 17 16 15 15 17 16 15 16 17 19 18 18 19 19 21 20 17 16 17 15 14 13 14 14 13 11 11 10 8 8 9 9 9 9 8 6 6 5 4 3 2 3 3 5 7 8 10 11
8 7 7 7 7 8 8 8 7 6 6 6 5 5 4 4 6 5 5 6 6 6 9 11 11 13 15 14 16 17 16 16 18 20 21 20 18 17 17 16 16 17 17 15 15 16 18 19 20 20 19 20 20 17 17 16 15 16 15 14 14 13 12 11 10 10 9 9 10 9 9 9 7 6 6 5 3 3 5 6 8 9 10 11 10
10 8 7 7 7 7 7 7 6 6 5 4 5 4 3 4 6 5 5 7 8 8 10 12 12 13 15 16 17 17 17 18 19 20 22 21 19 18 18 18 17 17 17 16 17 18 17 18 20 21 20 19 19 17 17 17 16 16 16 15 15 14 13 12 12 11 10 10 10 9 10 9 8 8 7 5 4 5 6 7 9 10 10 10 9
11 9 8 7 7 7 7 6 5 4 4 4 4 4 4 4 4 5 6 7 8 9 11 12 13 13 14 16 17 17 18 19 20 20 21 21 20 19 19 18 18 19 19 20 19 18 18 19 20 22 22 22 20 19 19 19 18 16 16 17 16 14 13 13 13 13 12 11 10 10 10 9 9 9 8 6 4 5 7 8 9 10 9 9 9
11 10 9 7 6 5 5 4 3 3 3 3 3 4 5 5 5 6 7 8 8 9 11 12 13 13 14 15 16 17 18 19 20 19 20 22 21 20 19 17 18 20 22 23 22 20 20 21 21 22 22 23 23 22 21 21 19 19 19 17 15 15 15 15 14 13 14 12 10 11 11 10 9 8 8 7 4 5 8 9 9 8 8 7 7
9 8 9 8 7 5 4 3 3 3 4 5 6 7 7 8 8 9 8 8 9 9 11 12 13 15 15 16 17 17 17 18 18 19 21 22 21 19 18 18 18 20 21 22 22 20 19 20 22 23 23 22 23 23 21 21 20 20 20 17 15 15 15 15 15 14 15 13 11 12 13 11 9 8 8 7 6 7 9 10 9 8 8 8 7
7 6 6 6 6 6 5 4 3 4 5 6 6 7 7 8 9 8 8 8 9 9 10 12 14 15 15 16 17 18 18 18 18 20 21 22 21 20 19 19 19 19 20 20 21 20 19 21 21 23 24 21 21 23 22 21 21 20 19 17 16 16 16 17 17 16 16 15 12 13 14 12 11 11 9 8 8 7 8 11 10 9 9 9 8
8 7 6 5 5 5 4 4 4 3 4 3 3 4 5 6 6 6 6 6 5 6 8 10 13 13 13 15 16 17 18 18 18 19 21 21 21 20 21 21 21 21 20 19 20 20 21 22 22 21 23 21 21 23 22 21 21 20 19 16 14 14 14 15 18 18 17 16 15 13 14 13 12 13 11 9 8 8 8 10 10 9 9 9 9
8 8 7 7 7 5 4 3 2 1 1 2 3 3 2 2 3 4 5 6 6 6 9 10 12 14 15 16 17 17 18 18 18 19 20 21 20 21 21 21 21 21 20 19 19 21 22 23 23 22 23 23 21 20 22 22 22 21 19 15 12 12 13 12 14 17 18 18 16 15 16 15 13 15 14 11 10 9 10 11 10 10 10 9 9
10 9 9 10 9 9 9 7 6 5 3 0 0 1 1 1 1 3 5 6 8 8 10 11 13 15 17 18 19 19 18 18 19 19 21 22 22 21 20 20 20 20 20 20 19 21 22 22 22 23 24 24 21 20 22 23 23 22 20 18 14 12 13 12 11 14 17 18 17 17 18 16 14 16 15 14 12 11 11 11 11 11 11 10 10
10 10 11 11 11 10 9 8 6 6 5 4 3 2 2 2 3 4 5 7 8 9 10 12 14 15 16 18 19 19 18 17 18 19 20 22 23 22 21 20 19 20 20 19 19 20 21 20 21 22 23 23 23 23 23 23 23 22 21 21 19 14 11 12 13 13 14 18 19 18 18 17 15 15 15 16 14 12 12 11 11 11 12 12 11
10 9 10 10 9 8 7 6 5 4 5 4 3 2 3 3 4 5 6 8 9 10 10 12 14 15 16 17 18 18 17 17 17 18 19 20 23 22 19 18 19 19 19 19 18 19 19 20 22 22 22 23 25 25 24 23 22 22 22 22 22 19 14 12 13 14 14 17 19 18 18 17 15 15 16 17 16 14 13 11 11 11 11 11 11
8 9 8 7 6 5 6 4 3 2 2 2 2 2 3 4 5 6 8 9 10 10 11 12 13 14 16 17 17 17 17 17 16 16 17 17 19 19 17 18 19 19 18 18 18 18 19 20 22 23 23 24 26 26 24 23 22 22 22 23 23 22 19 15 14 16 15 15 18 19 19 17 16 16 16 17 17 16 15 13 12 12 11 11 11
6 6 5 3 4 4 4 3 2 2 2 2 2 3 3 3 5 7 9 11 11 12 12 12 13 14 15 15 14 16 16 15 13 13 15 15 15 16 16 17 18 18 18 18 18 18 18 20 21 23 24 25 25 26 26 26 25 24 22 22 23 23 23 20 17 17 16 15 16 18 19 18 18 18 16 17 19 17 16 15 13 12 12 11 11
5 4 4 3 4 4 3 2 2 5 6 5 5 6 5 4 5 6 8 10 11 13 13 13 14 13 14 14 13 14 16 14 11 11 12 13 13 13 14 15 16 19 20 18 18 18 17 19 20 21 23 24 25 26 26 26 26 25 23 23 23 24 24 23 19 17 17 18 17 16 18 18 18 19 17 18 18 17 16 16 14 14 13 12 11
Wind_Direction
186 171 164 164 159 149 145 138 138 138 137 140 139 140 135 138 132 118 101 81 78 84 85 84 84 83 85 87 88 92 97 101 101 100 99 99 98 96 94 94 93 93 94 95 97 96 95 92 92 91 92 91 90 92 91 91 92 92 92 91 89 88 86 82 76 74 75 78 83 85 86 85 84 83 82 78 75 73 66 61 59 64 71 72 71
188 175 162 162 160 150 146 139 139 139 140 142 143 144 142 146 139 123 106 86 80 89 91 91 89 86 90 91 91 93 97 101 102 102 101 100 98 97 96 96 95 95 94 95 96 95 95 92 91 90 91 91 90 93 92 92 91 90 91 91 88 84 81 77 71 66 65 68 76 80 82 81 81 79 78 75 68 64 55 47 38 44 62 74 77
190 174 161 158 159 151 147 142 140 141 142 146 147 150 151 152 143 128 112 93 85 95 100 97 95 92 93 94 95 94 98 102 105 106 103 101 98 98 98 98 98 97 97 95 95 94 93 92 91 90 90 91 93 93 92 91 90 92 91 90 85 80 78 75 70 66 61 61 63 68 79 80 78 77 73 69 64 58 47 41 38 47 58 63 72
192 177 163 154 157 152 148 143 142 144 145 150 153 157 159 155 146 136 121 99 91 105 109 104 102 95 94 98 100 99 102 107 109 109 105 102 100 99 99 100 100 99 98 96 94 93 93 92 91 90 89 89 90 90 90 88 88 91 90 89 83 81 83 78 71 66 59 53 51 49 62 78 77 70 63 59 58 59 56 53 48 52 63 62 65
182 175 163 154 154 152 149 144 144 147 149 155 159 163 163 158 152 145 130 104 100 113 117 112 106 98 95 99 106 107 108 112 115 112 106 104 102 101 100 102 102 102 100 97 96 94 94 93 91 88 85 84 84 84 84 84 86 88 91 91 87 90 88 80 71 66 59 55 55 43 25 37 75 66 54 50 51 58 62 65 59 56 66 65 64
159 161 158 157 155 150 149 146 146 150 155 161 165 168 166 161 158 153 136 113 111 122 125 118 110 103 97 98 107 112 112 115 118 115 108 107 105 103 103 103 103 103 101 98 98 97 96 93 89 85 83 82 82 81 81 86 89 90 94 95 98 99 89 79 70 64 61 58 65 55 14 6 60 67 57 53 58 60 58 65 64 61 67 66 67
141 145 148 157 156 150 150 149 149 154 160 165 170 171 168 166 164 158 144 126 124 132 131 123 115 109 101 98 103 111 116 117 120 118 112 111 110 108 107 107 106 105 102 100 101 99 95 91 88 86 88 87 86 85 86 88 89 95 97 98 102 99 88 79 72 63 57 53 71 81 349 338 37 66 60 54 65 67 61 64 63 63 67 63 64
123 130 142 158 156 151 152 152 152 156 163 169 174 174 173 170 169 164 154 143 138 139 136 128 121 115 108 102 102 110 118 122 125 123 120 118 117 116 114 114 112 110 106 104 102 98 94 93 91 91 92 90 89 87 88 89 90 98 100 100 100 97 90 83 78 69 62 70 95 120 285 320 47 80 72 66 73 73 67 67 66 64 63 57 61
124 135 156 164 156 153 154 154 155 159 166 172 177 179 177 174 174 170 165 160 151 145 139 134 127 121 115 108 106 109 118 127 130 130 128 126 126 125 123 123 118 114 111 106 100 97 97 96 96 96 94 92 90 91 93 94 95 101 103 102 99 95 88 83 82 79 79 111 128 131 3 37 87 92 86 77 74 70 65 69 72 66 61 58 64
132 150 171 170 159 156 154 157 158 162 167 174 179 181 180 181 180 174 175 171 158 149 142 140 132 125 123 116 112 110 116 125 132 136 136 133 134 134 132 128 122 119 115 107 103 101 102 100 100 97 95 94 95 98 100 101 103 103 102 98 96 93 88 83 80 78 82 123 148 144 1 53 86 90 87 78 69 66 68 75 75 70 67 66 71
144 159 172 169 163 158 156 160 160 163 168 173 179 181 184 186 184 177 179 173 161 151 145 145 138 130 129 125 120 115 116 120 127 137 141 141 139 140 137 131 125 124 117 109 108 107 105 103 102 100 98 99 99 103 106 109 109 106 101 97 94 90 88 87 83 82 87 111 152 171 16 76 84 83 83 79 75 74 77 80 77 75 74 73 75
155 164 170 173 167 160 160 163 161 164 168 173 179 183 187 186 184 178 175 171 162 153 148 150 143 137 136 134 129 123 120 120 124 131 140 143 141 142 138 135 132 127 120 115 114 109 107 106 104 104 103 103 104 106 107 111 112 108 103 98 94 89 87 86 85 89 94 97 112 93 85 87 83 81 82 81 80 79 80 81 80 80 78 76 77
158 167 177 178 171 165 163 165 165 168 171 176 181 182 185 182 180 174 171 169 164 157 154 156 148 143 142 141 138 131 128 124 126 130 135 138 139 141 139 139 136 128 124 119 114 110 108 107 107 109 108 108 109 109 109 113 114 110 105 101 97 93 89 86 87 97 98 82 81 87 90 88 85 86 85 83 82 80 81 82 83 81 79 80 80
159 170 180 178 174 168 164 165 165 169 171 175 178 178 177 172 173 170 169 169 165 162 161 162 154 149 148 148 145 138 138 131 130 133 134 135 136 140 141 140 135 131 126 120 115 112 110 109 112 115 114 113 113 112 113 115 113 109 107 104 99 95 91 88 90 100 101 82 82 91 92 90 91 91 90 88 85 83 84 86 85 84 85 86 87
171 178 179 175 171 165 162 164 165 167 168 169 169 168 168 165 168 168 168 170 167 166 170 170 160 156 154 154 151 145 144 139 135 136 137 135 136 142 143 140 139 135 128 121 118 115 114 115 119 121 121 119 117 116 115 116 114 110 108 103 98 96 94 92 88 89 88 75 81 91 94 94 96 97 97 94 91 89 88 91 91 92 93 92 92
173 172 172 172 169 165 162 164 166 167 165 164 165 164 167 164 165 167 168 171 169 171 176 176 167 163 161 159 157 152 149 147 145 142 142 141 142 146 145 144 143 138 131 125 122 120 119 122 125 127 128 125 122 119 118 117 114 112 109 105 102 97 93 89 79 74 76 81 93 100 102 101 101 101 101 98 96 94 92 95 97 98 100 99 97
163 155 162 173 173 168 163 161 162 162 163 163 166 166 167 165 165 169 169 170 171 177 179 178 175 170 165 164 163 159 156 155 154 150 148 148 149 151 150 148 146 143 136 130 127 126 125 128 130 131 131 129 127 122 118 116 114 113 110 108 106 102 100 99 97 102 101 98 104 110 110 108 107 104 102 102 101 101 99 99 102 103 104 103 101
158 145 154 173 174 166 162 158 157 158 165 166 173 178 178 176 172 172 171 173 174 177 177 176 177 176 171 168 167 165 163 162 161 159 156 153 154 156 155 152 151 149 142 136 134 132 131 132 133 134 133 130 127 122 119 117 115 113 109 105 100 97 95 93 103 152 155 110 98 112 117 113 113 111 110 112 113 112 110 108 109 110 109 108 107
156 145 147 166 165 161 163 158 155 156 162 163 172 177 178 177 169 169 170 173 172 172 173 174 178 179 175 170 171 170 168 169 169 170 165 159 159 161 160 157 157 155 149 143 140 138 136 135 135 135 132 129 127 123 121 119 119 117 113 106 99 97 91 90 102 242 229 86 85 104 117 115 117 119 123 129 129 127 126 126 125 122 119 115 115
157 148 141 153 159 159 159 155 152 151 153 152 155 154 156 159 159 162 164 164 162 164 168 172 175 175 174 171 173 175 175 176 176 179 177 166 163 166 165 163 163 161 157 149 146 143 138 137 135 134 132 129 126 124 123 122 122 120 116 111 109 107 96 100 158 272 292 85 75 89 108 120 127 130 138 146 142 142 143 142 140 137 132 125 125
163 155 146 153 165 156 146 150 150 149 146 144 146 146 151 153 157 160 159 158 156 160 162 166 170 170 173 174 173 172 177 182 183 184 185 179 171 170 170 170 169 166 164 158 152 148 142 139 135 134 132 129 128 125 123 122 122 119 115 113 111 104 92 89 272 296 281 130 95 90 120 142 143 153 162 162 152 153 160 157 155 150 142 139 147
166 161 156 162 165 149 140 147 151 152 151 154 154 154 157 156 160 161 158 158 158 160 160 164 166 169 174 176 174 161 167 181 187 191 192 193 182 175 175 174 174 172 171 166 159 156 151 144 138 135 132 130 127 123 122 122 119 111 108 108 101 98 102 122 233 286 296 329 132 168 251 210 183 187 181 173 170 169 177 173 168 160 147 153 167
167 165 165 167 160 146 140 147 160 163 164 169 167 167 167 162 164 164 163 162 161 163 162 167 167 172 175 176 178 170 182 187 188 194 198 205 196 185 183 178 177 177 175 171 166 163 159 154 146 142 138 135 130 122 119 120 112 90 86 95 88 90 105 133 238 268 290 312 271 234 255 235 223 216 206 195 203 204 201 197 183 168 165 174 183
168 165 163 163 159 154 154 166 180 176 175 177 175 178 174 168 168 168 171 169 171 172 170 173 169 174 177 175 187 195 207 205 195 193 193 207 209 201 194 185 179 179 180 175 172 169 167 164 157 154 149 149 149 127 106 115 109 80 70 85 87 88 102 127 264 276 295 327 290 253 251 245 246 233 225 215 218 231 223 220 199 171 187 206 217
164 159 161 166 167 169 179 186 184 182 183 182 181 182 178 175 173 175 181 181 188 185 179 176 171 182 188 192 203 205 206 203 208 206 193 200 211 213 206 198 185 180 185 180 175 175 174 173 168 164 153 151 146 125 160 272 81 82 75 94 97 98 113 156 237 270 296 324 298 264 265 257 259 253 259 258 240 258 248 212 180 173 197 268 311
163 161 167 176 175 179 196 193 184 186 187 184 187 185 183 183 179 186 192 197 205 197 192 182 182 205 211 215 214 213 212 201 207 223 217 208 209 214 214 212 200 186 187 184 180 178 179 181 178 169 154 140 126 137 195 242 86 148 198 113 94 100 130 169 241 262 287 311 289 258 268 260 268 275 278 284 280 290 287 294 134 180 241 297 317
165 167 171 175 177 186 205 201 189 192 194 191 193 191 189 188 187 198 208 216 217 213 212 196 201 221 225 229 226 227 227 210 210 215 222 226 211 209 214 216 212 202 194 189 184 180 182 185 184 179 168 145 136 167 192 202 169 197 221 132 108 134 166 191 246 261 277 307 282 250 273 273 291 301 299 292 286 292 292 294 321 293 289 312 328
165 170 171 172 181 193 203 203 194 196 203 200 197 195 194 197 202 211 222 231 233 233 232 214 214 226 230 233 236 238 234 230 232 215 208 226 222 208 214 217 216 215 206 199 191 183 187 188 190 188 173 158 181 195 194 199 180 192 233 163 136 165 176 190 220 255 274 302 280 236 275 298 306 317 317 309 292 291 284 271 278 314 318 360 6
161 168 169 172 184 196 202 203 196 196 203 203 200 202 205 209 214 223 234 242 250 250 247 234 227 233 235 235 243 241 231 236 239 224 212 221 224 206 214 222 222 222 215 211 201 189 193 193 193 189 179 182 201 200 190 204 190 195 226 170 158 187 179 189 208 246 274 304 309 220 245 311 313 336 329 322 318 302 302 295 304 349 331 352 10
158 170 171 170 180 195 206 204 197 195 201 205 202 207 213 214 222 232 241 246 253 255 254 247 240 244 243 237 247 244 235 239 237 230 223 221 219 203 207 221 227 225 215 211 206 198 197 197 195 191 195 201 204 200 191 202 197 205 218 175 197 207 185 196 202 221 267 303 328 239 272 345 331 4 8 348 7 357 352 350 358 27 336 340 45
140 164 166 160 164 181 198 198 198 198 201 205 204 213 216 218 234 242 243 245 252 255 251 249 254 269 255 242 247 241 234 240 240 237 231 224 224 215 211 217 221 221 216 209 208 208 203 200 197 194 201 200 199 201 199 204 202 209 206 186 212 212 193 203 196 203 244 288 307 230 160 11 355 23 43 48 57 41 13 348 350 38 7 60 96
123 136 148 157 159 167 185 191 198 199 198 203 212 225 224 229 243 245 245 249 259 262 257 261 270 290 247 240 245 241 233 234 236 237 234 227 225 224 221 221 215 210 218 216 209 211 211 210 203 200 207 200 197 203 202 204 201 205 199 201 218 212 204 207 197 201 206 254 282 260 211 346 356 70 64 62 60 29 8 347 343 349 323 111 122
118 121 138 156 159 167 177 184 193 193 194 206 218 223 221 234 244 240 244 252 267 271 267 280 271 248 235 234 242 244 238 233 229 230 235 231 225 225 224 227 220 206 209 214 210 209 211 215 208 203 209 202 200 206 202 201 202 201 198 210 219 213 218 216 202 204 191 227 275 284 283 254 239 89 87 62 54 19 350 319 328 331 284 141 127
115 118 141 154 151 167 170 171 181 175 178 191 197 206 210 222 236 236 248 261 272 266 252 256 252 248 249 243 246 247 241 234 231 232 237 237 234 235 232 230 227 215 210 206 207 211 211 215 210 204 206 202 201 205 201 201 205 201 200 209 213 213 219 205 201 210 188 202 250 274 282 254 240 285 273 302 65 33 299 281 305 308 187 159 132
108 111 130 143 141 156 157 151 159 154 158 167 175 191 202 212 222 229 247 256 250 239 235 240 243 245 249 251 253 252 244 238 238 241 242 241 241 243 242 235 231 227 219 206 204 210 211 214 214 207 206 207 204 204 204 203 204 201 208 214 209 215 212 190 205 219 188 197 229 250 267 265 257 262 269 260 172 229 259 259 281 143 146 141 132
107 108 120 133 136 141 146 152 155 150 151 159 170 188 206 222 232 231 236 234 233 237 234 242 254 252 251 254 256 255 250 245 243 243 245 247 247 249 249 247 240 235 227 214 211 213 209 207 216 215 210 212 208 206 209 208 204 201 212 218 213 217 212 196 207 223 199 201 224 235 247 259 254 253 255 223 206 193 165 192 144 133 137 135 129
112 106 111 125 133 136 141 151 159 153 151 161 173 185 195 218 243 243 242 238 240 252 253 262 270 265 262 259 257 258 258 254 248 246 247 249 251 253 252 250 245 238 228 218 218 222 216 207 213 219 217 217 212 211 214 210 204 202 209 217 216 215 211 204 209 221 210 201 216 226 237 248 241 245 248 236 234 193 160 147 131 128 132 132 127
114 107 102 111 123 130 135 144 156 157 156 167 182 198 204 235 253 250 259 269 272 266 263 270 271 267 264 258 256 260 262 259 251 247 247 247 250 250 246 246 246 240 232 226 225 227 223 216 217 217 216 220 217 212 217 214 207 207 209 214 216 216 214 212 215 220 211 204 211 216 227 233 225 231 238 235 227 185 169 153 138 133 132 130 125
109 109 104 105 114 121 129 146 165 165 167 186 203 212 211 245 266 271 272 276 278 266 258 263 265 265 262 258 257 257 260 259 251 246 246 245 246 247 245 245 248 245 241 238 235 231 226 224 228 221 211 217 217 211 218 216 209 209 209 213 218 218 219 218 218 218 211 209 216 221 227 227 222 224 228 224 210 188 176 158 147 144 140 132 127
111 115 115 114 124 129 130 143 162 165 179 205 212 204 203 234 265 272 266 264 266 259 254 261 269 269 264 261 259 256 258 259 252 247 246 243 240 242 245 247 247 245 242 240 238 237 232 227 233 230 215 211 210 206 215 214 205 206 208 215 219 216 219 221 218 218 215 211 213 224 230 227 224 224 225 225 214 199 186 171 165 161 154 144 139
114 116 118 115 119 129 134 137 154 179 197 221 237 235 234 238 238 240 249 253 254 256 258 266 272 272 268 265 261 257 258 259 253 246 245 242 236 237 241 243 244 241 240 240 238 236 236 231 234 236 222 213 209 205 210 210 202 203 208 213 217 214 219 225 223 222 220 214 207 214 224 223 218 218 225 225 211 207 201 193 186 177 173 166 161
107 114 118 112 107 112 123 132 170 218 226 233 240 242 239 233 234 237 238 239 243 252 260 266 270 273 275 272 267 263 261 259 252 244 243 242 239 238 237 238 242 241 238 238 236 233 235 236 236 238 230 217 213 210 208 208 205 208 213 212 210 214 222 228 228 222 217 216 207 207 219 221 216 221 224 213 203 207 205 204 203 194 187 186 182
93 102 111 118 121 124 131 136 155 194 212 220 227 232 230 230 239 245 244 246 248 252 260 267 274 281 284 280 277 274 270 264 254 247 244 242 242 243 241 243 243 240 239 237 235 233 232 236 237 240 237 225 217 216 211 208 207 209 212 211 210 215 223 227 225 219 216 217 210 206 217 220 217 223 219 202 203 206 198 201 207 203 194 193 190
82 83 94 114 122 131 151 164 177 195 212 227 238 241 235 234 249 268 272 278 279 270 272 277 283 289 291 288 286 283 278 272 262 255 249 243 243 245 245 246 242 239 242 240 235 233 231 235 238 240 239 232 226 223 216 211 209 208 207 208 212 214 218 225 224 220 217 215 210 208 218 222 215 212 210 206 207 203 193 194 201 205 199 195 190
68 70 79 92 91 85 85 95 115 119 186 222 240 257 258 244 276 315 328 324 322 312 301 297 294 295 298 300 297 290 283 277 267 259 253 248 246 246 244 244 244 243 244 241 238 237 234 234 238 240 238 235 234 231 223 215 213 215 214 207 204 207 213 224 226 221 216 214 214 213 216 219 214 207 206 208 208 200 191 190 194 199 202 201 192
61 64 69 73 68 60 59 51 40 42 44 23 283 300 26 52 334 322 319 306 302 297 294 292 288 291 298 300 297 294 289 281 270 258 253 253 253 249 246 245 245 245 244 243 241 239 238 237 238 242 240 236 234 233 227 218 214 218 220 216 215 217 214 214 219 218 214 216 220 220 219 217 214 212 208 206 207 201 193 192 189 191 203 206 196
69 69 70 71 68 63 61 52 36 25 21 31 42 34 40 15 325 305 293 290 288 285 285 285 286 292 296 296 295 296 293 284 273 262 255 255 255 251 245 242 242 241 241 243 243 241 241 239 238 239 239 236 234 233 231 225 221 221 221 223 225 226 219 213 213 209 206 212 218 222 222 217 210 211 209 206 205 198 198 200 191 191 200 201 193
84 84 77 72 70 66 65 59 48 26 14 24 36 21 17 345 318 311 303 297 292 290 291 291 295 299 299 299 300 298 291 282 275 268 262 259 257 252 245 241 241 240 240 242 244 243 240 236 236 237 237 237 235 233 233 230 229 229 225 223 224 222 222 223 216 210 206 208 212 217 221 218 212 212 211 209 204 198 203 203 195 199 203 200 198
100 98 88 78 77 79 79 75 73 67 29 10 18 345 326 320 319 320 313 304 296 294 295 297 301 302 303 306 307 303 295 284 278 271 265 260 257 253 246 244 244 242 243 244 246 246 240 235 236 237 237 238 236 234 235 236 237 238 232 225 224 221 221 221 217 217 216 207 206 210 211 209 209 213 212 209 205 201 204 205 197 202 207 203 203
117 116 112 116 124 125 119 118 162 176 190 220 214 232 266 298 306 305 304 298 294 296 298 297 299 302 305 308 309 309 304 292 282 274 265 256 252 250 249 249 250 252 253 252 251 248 243 238 237 236 235 235 237 235 237 240 240 241 238 232 228 224 221 219 216 219 219 212 212 209 204 204 205 208 207 204 205 200 200 206 201 196 203 206 199
111 120 115 107 116 137 149 147 215 214 212 229 226 223 238 258 273 282 290 295 298 300 300 299 299 300 303 305 304 307 307 298 286 278 269 256 249 250 254 258 260 260 259 257 257 254 248 241 238 238 235 232 235 237 236 238 238 237 239 237 233 229 226 223 222 224 218 214 217 211 207 210 208 208 205 200 204 202 197 205 203 194 199 207 200